Station History

Weather Underground - logo

Station Historical Data
Daily Summary for January 10, 2018 Units:  English    Metric   Both
« Previous Day
Next Day »
Daily Weekly Monthly Yearly Custom
  High: Low: Average:
Temperature: TemperatureF °F 45.7 °F 51.1 °F
Dew Point: DewpointF °F 44.4 °F 47.8 °F
Humidity: Humidity % 76 % 87 %
Wind Speed: WindSpeedMPH mph 0.0 mph 0.4 mph
Wind Gust: WindSpeedGustMPH mph - -
Wind:- - West
Pressure: PressureIn in 30.15 in -
Precipitation: 0.00 in    
Historical Graphs
 
 
Tabular Data for January 10, 2018
Time Temperature Dew Point Pressure Wind Wind Speed Wind Gust Humidity Rainfall Rate (Hourly)
TemperatureF °F DewpointF °F PressureIn in Calm     Humidity % HourlyPrecipIn in
16:16 59.7 °F 52.1 °F 30.15 in NW 2.3 mph 2.3 mph 76 % 0.00 in
16:25 59.4 °F 51.8 °F 30.15 in NW 3.5 mph 3.5 mph 76 % 0.00 in
16:31 59.3 °F 52.1 °F 30.15 in WNW 3.5 mph 3.5 mph 77 % 0.00 in
16:37 59.1 °F 52.2 °F 30.16 in NW 2.3 mph 2.3 mph 78 % 0.00 in
16:46 58.6 °F 51.8 °F 30.16 in North 3.5 mph 3.5 mph 78 % 0.00 in
16:52 58.2 °F 51.7 °F 30.16 in WNW 2.3 mph   79 % 0.00 in
17:00 57.7 °F 51.6 °F 30.16 in Calm     80 % 0.00 in
17:06 57.4 °F 51.3 °F 30.16 in WNW 1.0 mph 1.0 mph 80 % 0.00 in
17:09 57.3 °F 51.2 °F 30.16 in WNW 1.2 mph 1.2 mph 80 % 0.00 in
17:10 57.2 °F 51.1 °F 30.16 in Calm     80 % 0.00 in
17:11 57.1 °F 51.3 °F 30.16 in Calm     81 % 0.00 in
17:12 57.1 °F 51.3 °F 30.16 in Calm     81 % 0.00 in
17:13 57.0 °F 51.2 °F 30.16 in Calm     81 % 0.00 in
17:18 56.7 °F 50.9 °F 30.16 in Calm     81 % 0.00 in
17:27 56.0 °F 50.9 °F 30.17 in Calm     83 % 0.00 in
17:36 55.4 °F 50.6 °F 30.16 in Calm     84 % 0.00 in
17:43 55.0 °F 50.6 °F 30.16 in Calm     85 % 0.00 in
17:50 54.8 °F 51.0 °F 30.16 in Calm     87 % 0.00 in
17:56 54.5 °F 50.7 °F 30.17 in Calm     87 % 0.00 in
18:02 54.5 °F 50.7 °F 30.17 in Calm     87 % 0.00 in
18:07 54.4 °F 50.9 °F 30.17 in Calm     88 % 0.00 in
18:14 54.3 °F 50.8 °F 30.17 in Calm     88 % 0.00 in
18:19 54.2 °F 50.7 °F 30.17 in Calm     88 % 0.00 in
18:25 54.2 °F 50.7 °F 30.17 in Calm     88 % 0.00 in
18:26 54.2 °F 50.7 °F 30.17 in Calm     88 % 0.00 in
18:45 53.3 °F 50.1 °F 30.17 in Calm     89 % 0.00 in
19:00 52.0 °F 49.5 °F 30.18 in Calm     91 % 0.00 in
19:24 50.8 °F 48.8 °F 30.19 in Calm     93 % 0.00 in
19:32 50.6 °F 48.7 °F 30.19 in Calm     93 % 0.00 in
19:46 50.3 °F 48.4 °F 30.19 in Calm     93 % 0.00 in
19:57 49.7 °F 47.8 °F 30.19 in Calm     93 % 0.00 in
20:03 49.4 °F 47.5 °F 30.20 in Calm     93 % 0.00 in
20:09 49.1 °F 47.2 °F 30.20 in Calm     93 % 0.00 in
20:21 48.7 °F 47.1 °F 30.21 in Calm     94 % 0.00 in
20:27 48.3 °F 46.7 °F 30.21 in Calm     94 % 0.00 in
20:35 48.1 °F 46.5 °F 30.21 in Calm     94 % 0.00 in
20:47 48.2 °F 46.6 °F 30.21 in Calm     94 % 0.00 in
20:52 48.2 °F 46.8 °F 30.21 in Calm     95 % 0.00 in
20:57 48.1 °F 46.5 °F 30.21 in Calm     94 % 0.00 in
21:02 48.0 °F 46.6 °F 30.22 in Calm     95 % 0.00 in
21:29 48.5 °F 47.1 °F 30.22 in Calm     95 % 0.00 in
21:35 48.4 °F 47.0 °F 30.22 in Calm     95 % 0.00 in
21:42 48.2 °F 46.8 °F 30.22 in Calm     95 % 0.00 in
21:58 47.9 °F 46.5 °F 30.22 in Calm     95 % 0.00 in
22:23 47.5 °F 46.1 °F 30.23 in Calm     95 % 0.00 in
22:29 47.3 °F 45.9 °F 30.23 in Calm     95 % 0.00 in
22:42 47.1 °F 45.7 °F 30.23 in Calm     95 % 0.00 in
22:52 46.8 °F 45.4 °F 30.23 in Calm     95 % 0.00 in
23:09 46.2 °F 44.8 °F 30.24 in Calm     95 % 0.00 in
23:21 45.8 °F 44.4 °F 30.25 in Calm     95 % 0.00 in
23:30 45.8 °F 44.4 °F 30.25 in Calm     95 % 0.00 in
23:35 45.7 °F 44.4 °F 30.25 in Calm     95 % 0.00 in
23:46 46.1 °F 45.0 °F 30.25 in Calm     96 % 0.00 in
23:52 46.3 °F 45.2 °F 30.25 in Calm     96 % 0.00 in
23:57 46.3 °F 45.2 °F 30.25 in Calm     96 % 0.00 in
Park Place, Exeter, Tulare County, California, USA
Compliments of Weather Underground - 1.5 mb